When you browse on this site, cookies collect data to enhance your experience and personalize the content and advertising you see.
Visit our Privacy Policy to learn more. By continuing to use the site, you agree to this use of cookies and data.
  • In Belgium
  • List of Countries
  • For 7 days
  • Water Temperature
  • Satellite Maps
  • Weather Map
  • Weather Widgets
  • user-avatar
    Login

    Hourly Weather Zhihino

    Today, 26 May, Sunday

    Time Temperature Precipitation Wind Pressure Humidity
    00:00 +13°C° 0 mm 2 mps 737 mmHg 98%
    01:00 +13°C° 0 mm 2 mps 737 mmHg 98%
    02:00 +12°C° 0 mm 2 mps 737 mmHg 97%
    03:00 +12°C° 0 mm 2 mps 737 mmHg 96%
    04:00 +12°C° 0 mm 2 mps 737 mmHg 96%
    05:00 +12°C° 0 mm 2 mps 738 mmHg 95%
    06:00 +14°C° 0.1 mm 2 mps 738 mmHg 89%
    07:00 +15°C° 0.1 mm 2 mps 738 mmHg 82%
    08:00 +17°C° 0.1 mm 2 mps 738 mmHg 76%
    09:00 +18°C° 0 mm 3 mps 738 mmHg 69%
    10:00 +19°C° 0 mm 3 mps 738 mmHg 63%
    11:00 +20°C° 0 mm 3 mps 738 mmHg 56%
    12:00 +20°C° 0 mm 3 mps 737 mmHg 54%
    13:00 +20°C° 0 mm 3 mps 737 mmHg 52%
    14:00 +21°C° 0 mm 3 mps 737 mmHg 50%
    15:00 +20°C° 0 mm 3 mps 737 mmHg 52%
    16:00 +20°C° 0 mm 2 mps 737 mmHg 55%
    17:00 +20°C° 0 mm 2 mps 737 mmHg 57%
    18:00 +18°C° 0 mm 2 mps 737 mmHg 62%
    19:00 +18°C° 0 mm 1 mps 737 mmHg 66%
    20:00 +15°C° 0 mm 1 mps 737 mmHg 71%
    21:00 +14°C° 0 mm 1 mps 737 mmHg 74%
    22:00 +13°C° 0 mm 1 mps 737 mmHg 76%
    23:00 +12°C° 0 mm 1 mps 737 mmHg 79%

    Tomorrow, 27 May, Monday

    Time Temperature Precipitation Wind Pressure Humidity
    00:00 +12°C° 0 mm 2 mps 737 mmHg 81%
    01:00 +10°C° 0 mm 3 mps 737 mmHg 83%
    02:00 +10°C° 0 mm 4 mps 737 mmHg 86%
    03:00 +10°C° 0 mm 4 mps 737 mmHg 85%
    04:00 +10°C° 0 mm 4 mps 737 mmHg 85%
    05:00 +10°C° 0 mm 4 mps 737 mmHg 84%
    06:00 +10°C° 0 mm 5 mps 738 mmHg 79%
    07:00 +12°C° 0 mm 5 mps 738 mmHg 74%
    08:00 +13°C° 0 mm 5 mps 739 mmHg 69%
    09:00 +13°C° 0 mm 6 mps 739 mmHg 67%
    10:00 +13°C° 0 mm 6 mps 739 mmHg 66%
    11:00 +14°C° 0 mm 6 mps 739 mmHg 64%
    12:00 +14°C° 0 mm 6 mps 740 mmHg 66%
    13:00 +14°C° 0 mm 5 mps 740 mmHg 68%
    14:00 +15°C° 0 mm 5 mps 740 mmHg 70%
    15:00 +15°C° 0.1 mm 5 mps 740 mmHg 73%
    16:00 +15°C° 0.1 mm 5 mps 740 mmHg 75%
    17:00 +14°C° 0.1 mm 4 mps 740 mmHg 78%
    18:00 +14°C° 0 mm 4 mps 740 mmHg 82%
    19:00 +14°C° 0 mm 3 mps 740 mmHg 85%
    20:00 +13°C° 0 mm 3 mps 740 mmHg 88%
    21:00 +13°C° 0.8 mm 3 mps 741 mmHg 90%
    22:00 +13°C° 0.8 mm 4 mps 741 mmHg 92%
    23:00 +14°C° 0.8 mm 4 mps 741 mmHg 95%

    Day after tomorrow, 28 May, Tuesday

    Time Temperature Precipitation Wind Pressure Humidity
    00:00 +13°C° 0.1 mm 4 mps 741 mmHg 95%
    01:00 +13°C° 0.1 mm 3 mps 741 mmHg 96%
    02:00 +13°C° 0.1 mm 3 mps 742 mmHg 96%
    03:00 +13°C° 0 mm 3 mps 742 mmHg 96%
    04:00 +14°C° 0 mm 3 mps 742 mmHg 96%
    05:00 +14°C° 0 mm 3 mps 743 mmHg 95%
    06:00 +16°C° 0 mm 3 mps 743 mmHg 91%
    07:00 +17°C° 0 mm 3 mps 743 mmHg 87%
    08:00 +19°C° 0 mm 3 mps 743 mmHg 82%
    09:00 +20°C° 0.4 mm 4 mps 743 mmHg 79%
    10:00 +21°C° 0.4 mm 4 mps 744 mmHg 75%
    11:00 +22°C° 0.4 mm 5 mps 744 mmHg 72%
    12:00 +22°C° 0.4 mm 4 mps 744 mmHg 69%
    13:00 +23°C° 0.4 mm 4 mps 744 mmHg 66%
    14:00 +25°C° 0.4 mm 4 mps 744 mmHg 63%
    15:00 +24°C° 0.6 mm 3 mps 744 mmHg 67%
    16:00 +24°C° 0.6 mm 3 mps 744 mmHg 72%
    17:00 +24°C° 0.6 mm 2 mps 744 mmHg 76%
    18:00 +21°C° 0.4 mm 2 mps 744 mmHg 81%
    19:00 +20°C° 0.4 mm 2 mps 744 mmHg 85%
    20:00 +19°C° 0.4 mm 3 mps 744 mmHg 89%
    21:00 +18°C° 0.5 mm 3 mps 744 mmHg 91%
    22:00 +18°C° 0.5 mm 3 mps 744 mmHg 93%
    23:00 +18°C° 0.5 mm 3 mps 743 mmHg 94%

    29 May, Wednesday

    Time Temperature Precipitation Wind Pressure Humidity
    00:00 +18°C° 0.1 mm 3 mps 743 mmHg 94%
    01:00 +18°C° 0.1 mm 4 mps 743 mmHg 94%
    02:00 +18°C° 0.1 mm 4 mps 744 mmHg 94%
    03:00 +18°C° 0 mm 4 mps 744 mmHg 93%
    04:00 +18°C° 0 mm 4 mps 744 mmHg 93%
    05:00 +18°C° 0 mm 4 mps 744 mmHg 92%
    06:00 +19°C° 0 mm 4 mps 744 mmHg 88%
    07:00 +21°C° 0 mm 4 mps 745 mmHg 83%
    08:00 +22°C° 0 mm 5 mps 745 mmHg 78%
    09:00 +23°C° 0 mm 5 mps 745 mmHg 71%
    10:00 +26°C° 0 mm 5 mps 745 mmHg 65%
    11:00 +27°C° 0 mm 6 mps 745 mmHg 58%
    12:00 +28°C° 0 mm 6 mps 745 mmHg 56%
    13:00 +28°C° 0 mm 5 mps 745 mmHg 53%
    14:00 +29°C° 0 mm 5 mps 745 mmHg 51%
    15:00 +28°C° 0 mm 5 mps 745 mmHg 55%
    16:00 +28°C° 0 mm 4 mps 745 mmHg 59%
    17:00 +27°C° 0 mm 4 mps 745 mmHg 63%
    18:00 +26°C° 0 mm 3 mps 745 mmHg 68%
    19:00 +24°C° 0 mm 3 mps 745 mmHg 73%
    20:00 +22°C° 0 mm 3 mps 745 mmHg 78%
    21:00 +21°C° 0 mm 3 mps 745 mmHg 79%
    22:00 +21°C° 0 mm 4 mps 746 mmHg 80%
    23:00 +20°C° 0 mm 4 mps 746 mmHg 82%

    30 May, Thursday

    Time Temperature Precipitation Wind Pressure Humidity
    00:00 +19°C° 0 mm 4 mps 746 mmHg 85%
    01:00 +19°C° 0 mm 3 mps 746 mmHg 88%
    02:00 +18°C° 0 mm 3 mps 746 mmHg 92%
    03:00 +18°C° 0 mm 3 mps 746 mmHg 91%
    04:00 +19°C° 0 mm 4 mps 746 mmHg 90%
    05:00 +19°C° 0 mm 4 mps 746 mmHg 89%
    06:00 +21°C° 0 mm 4 mps 746 mmHg 83%
    07:00 +22°C° 0 mm 4 mps 746 mmHg 77%
    08:00 +25°C° 0 mm 5 mps 746 mmHg 71%
    09:00 +26°C° 0 mm 5 mps 746 mmHg 66%
    10:00 +27°C° 0 mm 5 mps 746 mmHg 60%
    11:00 +28°C° 0 mm 5 mps 746 mmHg 55%
    12:00 +28°C° 0 mm 5 mps 746 mmHg 55%
    13:00 +28°C° 0 mm 5 mps 746 mmHg 54%
    14:00 +29°C° 0 mm 5 mps 746 mmHg 54%
    15:00 +28°C° 0.2 mm 4 mps 746 mmHg 59%
    16:00 +27°C° 0.2 mm 3 mps 745 mmHg 65%
    17:00 +26°C° 0.2 mm 3 mps 745 mmHg 71%
    18:00 +24°C° 0.3 mm 2 mps 745 mmHg 77%
    19:00 +21°C° 0.3 mm 2 mps 746 mmHg 82%
    20:00 +21°C° 0.3 mm 1 mps 746 mmHg 88%
    21:00 +20°C° 0 mm 1 mps 746 mmHg 89%
    22:00 +19°C° 0 mm 1 mps 746 mmHg 90%
    23:00 +19°C° 0 mm 1 mps 746 mmHg 91%

    31 May, Friday

    Time Temperature Precipitation Wind Pressure Humidity
    00:00 +19°C° 0 mm 1 mps 746 mmHg 93%
    01:00 +18°C° 0 mm 1 mps 746 mmHg 95%
    02:00 +18°C° 0 mm 1 mps 746 mmHg 97%
    03:00 +18°C° 0.4 mm 1 mps 746 mmHg 97%
    04:00 +18°C° 0.4 mm 1 mps 746 mmHg 96%
    05:00 +17°C° 0.4 mm 2 mps 746 mmHg 96%
    06:00 +16°C° 0.5 mm 2 mps 747 mmHg 96%
    07:00 +14°C° 0.5 mm 3 mps 747 mmHg 95%
    08:00 +13°C° 0.5 mm 4 mps 747 mmHg 94%
    09:00 +14°C° 0 mm 4 mps 747 mmHg 87%
    10:00 +16°C° 0 mm 3 mps 747 mmHg 80%
    11:00 +18°C° 0 mm 3 mps 747 mmHg 74%
    12:00 +18°C° 0 mm 3 mps 747 mmHg 73%
    13:00 +18°C° 0 mm 2 mps 747 mmHg 72%
    14:00 +19°C° 0 mm 2 mps 746 mmHg 71%
    15:00 +19°C° 0 mm 2 mps 746 mmHg 71%
    16:00 +19°C° 0 mm 2 mps 746 mmHg 72%
    17:00 +20°C° 0 mm 1 mps 746 mmHg 73%
    18:00 +19°C° 0.1 mm 1 mps 745 mmHg 78%
    19:00 +17°C° 0.1 mm 2 mps 745 mmHg 83%
    20:00 +15°C° 0.1 mm 2 mps 745 mmHg 88%
    21:00 +15°C° 0.5 mm 2 mps 745 mmHg 90%
    22:00 +14°C° 0.5 mm 2 mps 745 mmHg 91%
    23:00 +13°C° 0.5 mm 2 mps 745 mmHg 92%
    Show more